Hourly Data Report for July 23, 2021

CAMBRIDGE BAY A
NUNAVUT
Current Station Operator: NAVCAN

69°06'29.000" N
105°08'14.000" W
31.10 m
2400601
71925
YCB

Download Data

Hourly Data (July 2021)
Hourly Data Report for July 23, 2021
TIME
LST
Temp Definition
°C
Dew Point Definition
°C
Rel Hum Definition
%
Precip. Amount Definition
mm

Wind Dir Definition
10's deg

Wind Spd Definition
km/h
Visibility Definition
km
Stn Press Definition
kPa
Hmdx Definition


Wind Chill Definition


Weather Definition


00:00 4.6 2.3 85   4 41 24.1 99.89     LegendNANA
01:00 4.2 2.8 91   3 38 24.1 99.95     Rain
02:00 4.2 3.0 92   4 36 24.1 99.91     Rain
03:00 3.9 2.8 92   4 39 22.5 99.90     Rain
04:00 3.7 2.5 92   3 36 19.3 99.97     Rain
05:00 3.4 2.2 92   4 41 22.5 100.02     Rain
06:00 3.7 2.2 90   3 37 24.1 100.01     Rain
07:00 3.6 2.0 89   3 43 24.1 100.00     LegendNANA
08:00 3.9 2.0 87   2 44 24.1 99.98     Cloudy
09:00 3.3 1.7 89   2 43 24.1 100.02     LegendNANA
10:00 3.6 2.2 90   3 45 24.1 100.09     LegendNANA
11:00 4.6 2.1 84   4 41 24.1 100.09     Cloudy
12:00 5.0 1.8 80   3 43 24.1 100.11     LegendNANA
13:00 5.6 1.6 76   2 39 24.1 100.14     LegendNANA
14:00 5.3 1.2 75   2 37 24.1 100.20     Mostly Cloudy
15:00 4.9 0.7 74   2 35 24.1 100.26     LegendNANA
16:00 5.2 0.7 73   2 32 24.1 100.26     LegendNANA
17:00 4.9 0.3 72   2 35 24.1 100.29     Cloudy
18:00 5.1 0.5 72   1 25 24.1 100.30     LegendNANA
19:00 5.5 1.9 78   35 28 24.1 100.29     LegendNANA
20:00 5.3 2.5 82   36 26 24.1 100.27     Cloudy
21:00 5.4 2.6 82   35 26 24.1 100.25     LegendNANA
22:00 5.5 3.1 84   34 28 24.1 100.23     LegendNANA
23:00 5.5 3.0 84   35 27 24.1 100.19     Mostly Cloudy

Notes on Data Quality.

Legend

  • E = Estimated
  • M = Missing
  • NA = Not Available*
  • [empty] = Indicates an unobserved value
Date modified: